{"data":{"norad_id":39508,"intl_designator":"2014-006A","name":"ABS-2","alt_names":[],"object_type":"PAYLOAD","status":"ACTIVE","operator":null,"country":"ABS","launch_date":"2014-02-06","launch_site_code":"FRGUI","launch_vehicle":null,"mission":null,"orbit_class":"UNKNOWN","rcs_meters":0.3533,"size_class":null,"mass_kg":null,"dimensions":null,"purposes":["comms"],"wikipedia_slug":null,"has_3d_model":false,"image_url":null,"decayed_at":null,"tle_current":{"epoch":"2026-05-25T02:23:15.613728Z","epoch_age_seconds":73203,"freshness":"FRESH","line1":"1 39508U 14006A   26145.09948627 -.00000089  00000+0  00000+0 0  9995","line2":"2 39508   0.0566  91.5649 0003981 326.2118 295.6577  1.00272036 45047","mean_motion":1.00272036,"eccentricity":0.0003981,"inclination_deg":0.0566,"raan_deg":91.5649,"arg_perigee_deg":326.2118,"mean_anomaly_deg":295.6577,"bstar":0,"rev_number":4504,"period_min":1436.0933092054,"perigee_km":35769.738845144,"apogee_km":35803.310348708,"semimajor_km":42164.661596926,"source":"CELESTRAK","updated_at":"2026-05-25T13:38:13.948374Z"}}}